Time,TemperatureF,DewpointF,PressureIn,WindDirection,WindDirectionDegrees,WindSpeedMPH,WindSpeedGustMPH,Humidity,HourlyPrecipIn,Conditions,Clouds,dailyrainin,SoftwareType,DateUTC
2013-10-01 00:01:00,61.4,60.0,29.95,SSW,199,0.0,0.0,95,0.00,OVC,,0.00,WeatherDisplay:10.37,2013-10-01 04:01:00,
2013-10-01 00:06:00,61.6,60.2,29.95,SSW,200,0.0,0.0,95,0.00,OVC,,0.00,WeatherDisplay:10.37,2013-10-01 04:06:00,
2013-10-01 00:11:00,61.7,60.3,29.95,SSW,200,0.0,0.0,95,0.00,OVC,,0.00,WeatherDisplay:10.37,2013-10-01 04:11:00,
2013-10-01 00:16:00,61.6,60.2,29.95,SSW,210,0.8,1.2,95,0.00,OVC,,0.00,WeatherDisplay:10.37,2013-10-01 04:16:00,
2013-10-01 00:21:00,61.7,60.3,29.95,SSE,162,0.7,1.2,95,0.00,OVC,,0.00,WeatherDisplay:10.37,2013-10-01 04:21:00,
2013-10-01 00:26:00,61.7,60.3,29.95,SSE,165,1.0,2.3,95,0.00,OVC,,0.00,WeatherDisplay:10.37,2013-10-01 04:26:00,
2013-10-01 00:31:00,61.7,60.3,29.94,SSE,158,0.0,0.0,95,0.00,OVC,,0.00,WeatherDisplay:10.37,2013-10-01 04:31:00,
2013-10-01 00:36:00,61.6,60.2,29.95,SSE,158,0.0,0.0,95,0.00,OVC,,0.00,WeatherDisplay:10.37,2013-10-01 04:36:00,
2013-10-01 00:41:00,61.7,60.3,29.94,SE,134,0.0,1.2,95,0.00,OVC,,0.00,WeatherDisplay:10.37,2013-10-01 04:41:00,
2013-10-01 00:46:00,61.7,60.3,29.94,South,177,0.7,1.2,95,0.00,OVC,,0.00,WeatherDisplay:10.37,2013-10-01 04:46:00,
2013-10-01 00:52:00,61.6,60.2,29.94,SSE,160,0.0,0.0,95,0.00,OVC,,0.00,WeatherDisplay:10.37,2013-10-01 04:52:00,
2013-10-01 00:57:00,61.5,60.1,29.94,SSE,160,0.0,0.0,95,0.00,OVC,,0.00,WeatherDisplay:10.37,2013-10-01 04:57:00,
2013-10-01 01:02:00,61.4,60.0,29.94,SSE,160,0.0,1.2,95,0.00,OVC,,0.00,WeatherDisplay:10.37,2013-10-01 05:02:00,
2013-10-01 01:07:00,61.3,59.9,29.95,SSE,160,0.0,0.0,95,0.00,OVC,,0.00,WeatherDisplay:10.37,2013-10-01 05:07:00,
2013-10-01 01:12:00,61.2,59.8,29.94,SSE,160,0.0,0.0,95,0.00,OVC,,0.00,WeatherDisplay:10.37,2013-10-01 05:12:00,
2013-10-01 01:17:00,61.1,59.7,29.94,SSE,160,0.0,0.0,95,0.00,OVC,,0.00,WeatherDisplay:10.37,2013-10-01 05:17:00,
2013-10-01 01:22:00,61.1,60.0,29.95,SSE,166,0.0,1.2,96,0.00,OVC,,0.00,WeatherDisplay:10.37,2013-10-01 05:22:00,
2013-10-01 01:27:00,61.1,60.0,29.94,SE,144,0.3,1.0,96,0.00,OVC,,0.00,WeatherDisplay:10.37,2013-10-01 05:27:00,
2013-10-01 01:32:00,61.1,60.0,29.94,SE,144,0.8,2.3,96,0.00,OVC,,0.00,WeatherDisplay:10.37,2013-10-01 05:32:00,
2013-10-01 01:37:00,61.2,60.1,29.94,SE,143,0.0,1.2,96,0.00,OVC,,0.00,WeatherDisplay:10.37,2013-10-01 05:37:00,
2013-10-01 01:42:00,61.2,60.1,29.94,SSE,155,0.6,1.2,96,0.00,OVC,,0.00,WeatherDisplay:10.37,2013-10-01 05:42:00,
2013-10-01 01:47:00,61.2,60.1,29.94,SSE,156,0.0,0.0,96,0.00,OVC,,0.00,WeatherDisplay:10.37,2013-10-01 05:47:00,
2013-10-01 01:52:00,61.2,60.1,29.94,SSE,156,0.8,1.2,96,0.00,OVC,,0.00,WeatherDisplay:10.37,2013-10-01 05:52:00,
2013-10-01 01:57:00,61.3,60.2,29.94,South,188,0.0,1.2,96,0.00,OVC,,0.00,WeatherDisplay:10.37,2013-10-01 05:57:00,
2013-10-01 02:02:00,61.3,60.2,29.95,South,187,0.0,0.0,96,0.00,BKN,,0.00,WeatherDisplay:10.37,2013-10-01 06:02:00,
2013-10-01 02:07:00,61.2,60.1,29.94,South,187,0.0,0.0,96,0.00,BKN,,0.00,WeatherDisplay:10.37,2013-10-01 06:07:00,
2013-10-01 02:12:00,61.3,60.2,29.95,SSW,200,0.1,0.0,96,0.00,BKN,,0.00,WeatherDisplay:10.37,2013-10-01 06:12:00,
2013-10-01 02:17:00,61.2,60.1,29.95,SW,215,0.2,0.0,96,0.00,BKN,,0.00,WeatherDisplay:10.37,2013-10-01 06:17:00,
2013-10-01 02:22:00,61.2,60.1,29.95,SW,214,0.1,1.2,96,0.00,BKN,,0.00,WeatherDisplay:10.37,2013-10-01 06:22:00,
2013-10-01 02:27:00,61.2,60.1,29.95,SW,214,0.4,1.2,96,0.00,BKN,,0.00,WeatherDisplay:10.37,2013-10-01 06:27:00,
2013-10-01 02:32:00,61.2,60.1,29.95,SSW,211,0.0,0.0,96,0.00,BKN,,0.00,WeatherDisplay:10.37,2013-10-01 06:32:00,
2013-10-01 02:37:00,61.1,60.0,29.95,SSW,210,0.0,0.0,96,0.00,BKN,,0.00,WeatherDisplay:10.37,2013-10-01 06:37:00,
2013-10-01 02:42:00,61.1,60.0,29.95,SSW,210,0.0,0.0,96,0.00,BKN,,0.00,WeatherDisplay:10.37,2013-10-01 06:42:00,
2013-10-01 02:47:00,61.1,60.0,29.95,SSW,210,0.0,0.0,96,0.00,BKN,,0.00,WeatherDisplay:10.37,2013-10-01 06:47:00,
2013-10-01 02:52:00,61.0,59.9,29.95,SSW,210,0.0,0.0,96,0.00,BKN,,0.00,WeatherDisplay:10.37,2013-10-01 06:52:00,
2013-10-01 02:57:00,60.7,59.6,29.95,SSW,210,0.0,0.0,96,0.00,BKN,,0.00,WeatherDisplay:10.37,2013-10-01 06:57:00,
2013-10-01 03:02:00,60.6,59.5,29.95,SSW,210,0.0,0.0,96,0.00,SCT,,0.00,WeatherDisplay:10.37,2013-10-01 07:02:00,
2013-10-01 03:07:00,60.4,59.3,29.95,SSW,211,0.0,0.0,96,0.00,SCT,,0.00,WeatherDisplay:10.37,2013-10-01 07:07:00,
2013-10-01 03:13:00,60.2,59.1,29.95,SSW,210,0.0,0.0,96,0.00,SCT,,0.00,WeatherDisplay:10.37,2013-10-01 07:13:00,
2013-10-01 03:18:00,60.1,59.0,29.95,SSW,210,0.0,0.0,96,0.00,SCT,,0.00,WeatherDisplay:10.37,2013-10-01 07:18:00,
2013-10-01 03:23:00,60.0,58.9,29.95,SSW,210,0.0,0.0,96,0.00,SCT,,0.00,WeatherDisplay:10.37,2013-10-01 07:23:00,
2013-10-01 03:28:00,60.2,59.3,29.95,SSW,210,0.0,0.0,97,0.00,SCT,,0.00,WeatherDisplay:10.37,2013-10-01 07:28:00,
2013-10-01 03:33:00,60.2,59.3,29.95,SSW,210,0.0,0.0,97,0.00,SCT,,0.00,WeatherDisplay:10.37,2013-10-01 07:33:00,
2013-10-01 03:38:00,60.1,59.0,29.95,SSW,210,0.0,0.0,96,0.00,SCT,,0.00,WeatherDisplay:10.37,2013-10-01 07:38:00,
2013-10-01 03:43:00,60.1,59.0,29.95,SSW,210,0.0,0.0,96,0.00,SCT,,0.00,WeatherDisplay:10.37,2013-10-01 07:43:00,
2013-10-01 03:48:00,60.1,59.0,29.95,SSW,210,0.0,0.0,96,0.00,SCT,,0.00,WeatherDisplay:10.37,2013-10-01 07:48:00,
2013-10-01 03:53:00,59.8,58.7,29.95,SSW,210,0.0,0.0,96,0.00,SCT,,0.00,WeatherDisplay:10.37,2013-10-01 07:53:00,
2013-10-01 03:58:00,59.5,58.4,29.95,SSW,210,0.0,0.0,96,0.00,SCT,,0.00,WeatherDisplay:10.37,2013-10-01 07:58:00,
2013-10-01 04:03:00,59.3,58.2,29.95,SSW,210,0.0,0.0,96,0.00,BKN,,0.00,WeatherDisplay:10.37,2013-10-01 08:03:00,
2013-10-01 04:08:00,59.4,58.3,29.95,SSW,210,0.0,0.0,96,0.00,BKN,,0.00,WeatherDisplay:10.37,2013-10-01 08:08:00,
2013-10-01 04:13:00,59.5,58.6,29.95,SSW,210,0.0,0.0,97,0.00,BKN,,0.00,WeatherDisplay:10.37,2013-10-01 08:13:00,
2013-10-01 04:18:00,59.5,58.6,29.95,SSW,211,0.0,0.0,97,0.00,BKN,,0.00,WeatherDisplay:10.37,2013-10-01 08:18:00,
2013-10-01 04:23:00,59.5,58.6,29.96,SSW,210,0.0,0.0,97,0.00,BKN,,0.00,WeatherDisplay:10.37,2013-10-01 08:23:00,
2013-10-01 04:28:00,59.7,58.8,29.96,SSW,210,0.0,0.0,97,0.00,BKN,,0.00,WeatherDisplay:10.37,2013-10-01 08:28:00,
2013-10-01 04:33:00,59.9,59.0,29.96,SSW,211,0.0,0.0,97,0.00,BKN,,0.00,WeatherDisplay:10.37,2013-10-01 08:33:00,
2013-10-01 04:38:00,59.9,59.0,29.96,SSW,210,0.0,0.0,97,0.00,BKN,,0.00,WeatherDisplay:10.37,2013-10-01 08:38:00,
2013-10-01 04:43:00,59.8,58.9,29.96,SSW,211,0.0,0.0,97,0.00,BKN,,0.00,WeatherDisplay:10.37,2013-10-01 08:43:00,
2013-10-01 04:48:00,59.7,58.8,29.96,SSW,210,0.0,0.0,97,0.00,OVC,,0.00,WeatherDisplay:10.37,2013-10-01 08:48:00,
2013-10-01 04:53:00,59.7,58.8,29.96,SSW,212,0.0,0.0,97,0.00,OVC,,0.00,WeatherDisplay:10.37,2013-10-01 08:53:00,
2013-10-01 04:58:00,59.9,59.0,29.96,SSW,210,0.0,1.2,97,0.00,OVC,,0.00,WeatherDisplay:10.37,2013-10-01 08:58:00,
2013-10-01 05:03:00,59.7,58.8,29.96,SSW,212,0.0,0.0,97,0.00,OVC,,0.00,WeatherDisplay:10.37,2013-10-01 09:03:00,
2013-10-01 05:08:00,59.6,58.7,29.96,SSW,210,0.0,0.0,97,0.00,OVC,,0.00,WeatherDisplay:10.37,2013-10-01 09:08:00,
2013-10-01 05:13:00,59.6,58.7,29.96,SSW,210,0.0,0.0,97,0.00,OVC,,0.00,WeatherDisplay:10.37,2013-10-01 09:13:00,
2013-10-01 05:18:00,59.7,58.8,29.96,SSW,210,0.0,0.0,97,0.00,OVC,,0.00,WeatherDisplay:10.37,2013-10-01 09:18:00,
2013-10-01 05:24:00,59.6,58.7,29.96,SSW,210,0.0,0.0,97,0.00,OVC,,0.00,WeatherDisplay:10.37,2013-10-01 09:24:00,
2013-10-01 05:29:00,59.5,58.6,29.96,SSW,210,0.0,0.0,97,0.00,OVC,,0.00,WeatherDisplay:10.37,2013-10-01 09:29:00,
2013-10-01 05:34:00,59.4,58.5,29.96,SSW,210,0.0,0.0,97,0.00,OVC,,0.00,WeatherDisplay:10.37,2013-10-01 09:34:00,
2013-10-01 05:39:00,59.2,58.3,29.96,SSW,211,0.0,0.0,97,0.00,OVC,,0.00,WeatherDisplay:10.37,2013-10-01 09:39:00,
2013-10-01 05:44:00,59.1,58.2,29.97,SSW,210,0.0,0.0,97,0.00,OVC,,0.00,WeatherDisplay:10.37,2013-10-01 09:44:00,
2013-10-01 05:49:00,58.8,58.0,29.97,SSW,211,0.0,0.0,97,0.00,OVC,,0.00,WeatherDisplay:10.37,2013-10-01 09:49:00,
2013-10-01 05:54:00,58.6,57.8,29.97,SSW,210,0.0,0.0,97,0.00,OVC,,0.00,WeatherDisplay:10.37,2013-10-01 09:54:00,
2013-10-01 05:59:00,58.6,57.8,29.97,SSW,210,0.0,0.0,97,0.00,OVC,,0.00,WeatherDisplay:10.37,2013-10-01 09:59:00,
2013-10-01 06:04:00,58.6,57.8,29.97,SSW,211,0.0,0.0,97,0.00,SCT,,0.00,WeatherDisplay:10.37,2013-10-01 10:04:00,
2013-10-01 06:09:00,58.7,57.9,29.97,SSW,211,0.0,0.0,97,0.00,SCT,,0.00,WeatherDisplay:10.37,2013-10-01 10:09:00,
2013-10-01 06:14:00,58.6,57.8,29.97,SSW,210,0.0,0.0,97,0.00,SCT,,0.00,WeatherDisplay:10.37,2013-10-01 10:14:00,
2013-10-01 06:19:00,58.5,57.7,29.97,SSW,210,0.0,0.0,97,0.00,SCT,,0.00,WeatherDisplay:10.37,2013-10-01 10:19:00,
2013-10-01 06:24:00,58.4,57.6,29.97,SSW,210,0.0,0.0,97,0.00,SCT,,0.00,WeatherDisplay:10.37,2013-10-01 10:24:00,
2013-10-01 06:29:00,58.3,57.5,29.97,SSW,211,0.0,0.0,97,0.00,SCT,,0.00,WeatherDisplay:10.37,2013-10-01 10:29:00,
2013-10-01 06:34:00,58.1,57.3,29.97,SSW,210,0.0,0.0,97,0.00,SCT,,0.00,WeatherDisplay:10.37,2013-10-01 10:34:00,
2013-10-01 06:39:00,58.1,57.3,29.97,SSW,211,0.0,0.0,97,0.00,SCT,,0.00,WeatherDisplay:10.37,2013-10-01 10:39:00,
2013-10-01 06:44:00,58.0,57.2,29.98,SSW,210,0.0,0.0,97,0.00,SCT,,0.00,WeatherDisplay:10.37,2013-10-01 10:44:00,
2013-10-01 06:49:00,57.9,57.1,29.98,SSW,211,0.0,0.0,97,0.00,SCT,,0.00,WeatherDisplay:10.37,2013-10-01 10:49:00,
2013-10-01 06:54:00,57.9,57.1,29.98,SSW,210,0.0,0.0,97,0.00,SCT,,0.00,WeatherDisplay:10.37,2013-10-01 10:54:00,
2013-10-01 06:59:00,57.8,57.0,29.98,SSW,210,0.0,0.0,97,0.00,SCT,,0.00,WeatherDisplay:10.37,2013-10-01 10:59:00,
2013-10-01 07:05:00,57.8,57.0,29.98,SSW,210,0.0,0.0,97,0.00,BKN,,0.00,WeatherDisplay:10.37,2013-10-01 11:05:00,
2013-10-01 07:10:00,57.8,57.0,29.98,SSW,210,0.0,0.0,97,0.00,BKN,,0.00,WeatherDisplay:10.37,2013-10-01 11:10:00,
2013-10-01 07:15:00,57.5,56.7,29.98,SSW,211,0.0,0.0,97,0.00,BKN,,0.00,WeatherDisplay:10.37,2013-10-01 11:15:00,
2013-10-01 07:20:00,57.2,56.4,29.98,SSW,210,0.0,0.0,97,0.00,BKN,,0.00,WeatherDisplay:10.37,2013-10-01 11:20:00,
2013-10-01 07:25:00,57.2,56.4,29.98,SSW,210,0.0,0.0,97,0.00,BKN,,0.00,WeatherDisplay:10.37,2013-10-01 11:25:00,
2013-10-01 07:30:00,57.1,56.3,29.98,SSW,211,0.0,0.0,97,0.00,BKN,,0.00,WeatherDisplay:10.37,2013-10-01 11:30:00,
2013-10-01 07:35:00,56.8,56.0,29.98,SSW,211,0.0,0.0,97,0.00,BKN,,0.00,WeatherDisplay:10.37,2013-10-01 11:35:00,
2013-10-01 07:40:00,56.6,55.8,29.98,SSW,211,0.0,0.0,97,0.00,BKN,,0.00,WeatherDisplay:10.37,2013-10-01 11:40:00,
2013-10-01 07:45:00,56.7,55.9,29.98,SSW,210,0.0,1.2,97,0.00,BKN,,0.00,WeatherDisplay:10.37,2013-10-01 11:45:00,
2013-10-01 07:50:00,56.7,55.9,29.98,SSW,211,0.0,1.2,97,0.00,BKN,,0.00,WeatherDisplay:10.37,2013-10-01 11:50:00,
2013-10-01 07:55:00,56.8,56.0,29.99,SSW,205,0.0,0.0,97,0.00,BKN,,0.00,WeatherDisplay:10.37,2013-10-01 11:55:00,
2013-10-01 08:00:00,57.0,56.2,29.99,SSW,204,0.0,0.0,97,0.00,BKN,,0.00,WeatherDisplay:10.37,2013-10-01 12:00:00,
2013-10-01 08:05:00,57.4,56.8,29.99,SSW,204,0.0,0.0,98,0.00,BKN,,0.00,WeatherDisplay:10.37,2013-10-01 12:05:00,
2013-10-01 08:10:00,57.9,57.3,29.99,South,185,0.0,1.0,98,0.00,BKN,,0.00,WeatherDisplay:10.37,2013-10-01 12:10:00,
2013-10-01 08:15:00,58.2,57.6,29.99,South,184,0.0,0.0,98,0.00,BKN,,0.00,WeatherDisplay:10.37,2013-10-01 12:15:00,
2013-10-01 08:20:00,58.4,57.8,29.98,South,185,0.2,1.2,98,0.00,BKN,,0.00,WeatherDisplay:10.37,2013-10-01 12:20:00,
2013-10-01 08:25:00,58.6,58.0,29.98,South,183,0.0,0.0,98,0.00,BKN,,0.00,WeatherDisplay:10.37,2013-10-01 12:25:00,
2013-10-01 08:30:00,58.6,58.0,29.98,SSW,198,0.0,0.0,98,0.00,BKN,,0.00,WeatherDisplay:10.37,2013-10-01 12:30:00,
2013-10-01 08:36:00,58.7,58.1,29.98,SSW,199,0.0,0.0,98,0.00,BKN,,0.00,WeatherDisplay:10.37,2013-10-01 12:36:00,
2013-10-01 08:41:00,58.8,58.2,29.99,SSW,199,0.0,0.0,98,0.00,BKN,,0.00,WeatherDisplay:10.37,2013-10-01 12:41:00,
2013-10-01 08:46:00,59.2,58.6,29.99,SW,221,1.6,2.3,98,0.00,SCT,,0.00,WeatherDisplay:10.37,2013-10-01 12:46:00,
2013-10-01 08:51:00,59.6,59.0,29.99,SW,214,0.1,2.3,98,0.00,SCT,,0.00,WeatherDisplay:10.37,2013-10-01 12:51:00,
2013-10-01 08:56:00,60.1,59.5,29.99,SW,222,1.2,2.3,98,0.00,SCT,,0.00,WeatherDisplay:10.37,2013-10-01 12:56:00,
2013-10-01 09:01:00,60.3,59.7,29.99,South,188,1.0,2.3,98,0.00,BKN,,0.00,WeatherDisplay:10.37,2013-10-01 13:01:00,
2013-10-01 09:06:00,60.4,59.8,29.99,SW,217,1.1,2.0,98,0.00,BKN,,0.00,WeatherDisplay:10.37,2013-10-01 13:06:00,
2013-10-01 09:11:00,60.6,60.0,29.99,SSW,210,0.9,3.5,98,0.00,BKN,,0.00,WeatherDisplay:10.37,2013-10-01 13:11:00,
2013-10-01 09:16:00,61.0,60.4,29.99,South,188,0.4,1.2,98,0.00,BKN,,0.00,WeatherDisplay:10.37,2013-10-01 13:16:00,
2013-10-01 09:21:00,61.3,60.7,29.99,SSW,210,1.7,3.5,98,0.00,BKN,,0.00,WeatherDisplay:10.37,2013-10-01 13:21:00,
2013-10-01 09:26:00,61.4,60.8,29.99,SW,214,0.8,2.3,98,0.00,BKN,,0.00,WeatherDisplay:10.37,2013-10-01 13:26:00,
2013-10-01 09:31:00,61.4,60.5,29.99,WSW,257,1.4,3.0,97,0.00,BKN,,0.00,WeatherDisplay:10.37,2013-10-01 13:31:00,
2013-10-01 09:36:00,61.6,60.7,29.99,SW,229,3.7,4.0,97,0.00,BKN,,0.00,WeatherDisplay:10.37,2013-10-01 13:36:00,
2013-10-01 09:41:00,61.9,61.0,29.99,NW,312,1.8,3.5,97,0.00,BKN,,0.00,WeatherDisplay:10.37,2013-10-01 13:41:00,
2013-10-01 09:47:00,62.1,60.9,29.99,WSW,252,3.7,4.6,96,0.00,BKN,,0.00,WeatherDisplay:10.37,2013-10-01 13:47:00,
2013-10-01 09:52:00,62.4,61.2,29.99,SW,232,2.3,3.5,96,0.00,BKN,,0.00,WeatherDisplay:10.37,2013-10-01 13:52:00,
2013-10-01 09:57:00,63.2,62.0,29.99,SSW,208,1.6,3.0,96,0.00,BKN,,0.00,WeatherDisplay:10.37,2013-10-01 13:57:00,
2013-10-01 10:02:00,63.7,62.2,29.99,SW,233,1.6,3.5,95,0.00,BKN,,0.00,WeatherDisplay:10.37,2013-10-01 14:02:00,
2013-10-01 10:07:00,64.1,62.3,29.99,West,278,1.8,2.0,94,0.00,BKN,,0.00,WeatherDisplay:10.37,2013-10-01 14:07:00,
2013-10-01 10:13:00,64.9,63.1,29.99,SE,134,0.8,1.2,94,0.00,BKN,,0.00,WeatherDisplay:10.37,2013-10-01 14:13:00,
2013-10-01 10:18:00,65.4,62.7,29.99,WSW,250,6.6,8.1,91,0.00,BKN,,0.00,WeatherDisplay:10.37,2013-10-01 14:18:00,
2013-10-01 10:23:00,65.4,62.1,29.99,WSW,243,5.1,6.9,89,0.00,BKN,,0.00,WeatherDisplay:10.37,2013-10-01 14:23:00,
2013-10-01 10:28:00,65.9,62.6,29.99,WSW,238,4.4,6.0,89,0.00,BKN,,0.00,WeatherDisplay:10.37,2013-10-01 14:28:00,
2013-10-01 10:33:00,66.4,62.1,29.99,SW,231,2.0,5.8,86,0.00,BKN,,0.00,WeatherDisplay:10.37,2013-10-01 14:33:00,
2013-10-01 10:38:00,66.9,62.6,29.99,SW,228,4.5,6.9,86,0.00,BKN,,0.00,WeatherDisplay:10.37,2013-10-01 14:38:00,
2013-10-01 10:43:00,66.7,61.7,29.99,SW,236,6.8,9.2,84,0.00,BKN,,0.00,WeatherDisplay:10.37,2013-10-01 14:43:00,
2013-10-01 10:48:00,66.5,61.5,29.99,WSW,245,4.0,4.6,84,0.00,BKN,,0.00,WeatherDisplay:10.37,2013-10-01 14:48:00,
2013-10-01 10:53:00,66.4,61.4,29.99,WSW,256,2.3,4.6,84,0.00,BKN,,0.00,WeatherDisplay:10.37,2013-10-01 14:53:00,
2013-10-01 10:58:00,66.7,61.4,29.99,SW,231,2.6,5.8,83,0.00,BKN,,0.00,WeatherDisplay:10.37,2013-10-01 14:58:00,
2013-10-01 11:03:00,66.8,60.8,29.99,SW,235,4.8,7.0,81,0.00,BKN,,0.00,WeatherDisplay:10.37,2013-10-01 15:03:00,
2013-10-01 11:08:00,66.7,60.7,29.98,SW,217,2.2,3.5,81,0.00,BKN,,0.00,WeatherDisplay:10.37,2013-10-01 15:08:00,
2013-10-01 11:13:00,66.7,60.7,29.98,WSW,255,1.7,4.0,81,0.00,BKN,,0.00,WeatherDisplay:10.37,2013-10-01 15:13:00,
2013-10-01 11:18:00,67.0,61.0,29.98,SSW,203,1.9,4.6,81,0.00,BKN,,0.00,WeatherDisplay:10.37,2013-10-01 15:18:00,
2013-10-01 11:23:00,67.7,60.6,29.98,SSW,201,3.7,3.7,78,0.00,BKN,,0.00,WeatherDisplay:10.37,2013-10-01 15:23:00,
2013-10-01 11:28:00,68.2,60.7,29.98,WSW,245,2.2,5.8,77,0.00,BKN,,0.00,WeatherDisplay:10.37,2013-10-01 15:28:00,
2013-10-01 11:33:00,68.3,60.8,29.98,WSW,241,2.8,4.0,77,0.00,BKN,,0.00,WeatherDisplay:10.37,2013-10-01 15:33:00,
2013-10-01 11:38:00,68.5,60.3,29.98,WNW,301,3.7,3.7,75,0.00,BKN,,0.00,WeatherDisplay:10.37,2013-10-01 15:38:00,
2013-10-01 11:43:00,68.9,59.9,29.98,West,271,4.3,9.2,73,0.00,BKN,,0.00,WeatherDisplay:10.37,2013-10-01 15:43:00,
2013-10-01 11:48:00,68.6,59.2,29.97,WSW,238,1.9,4.6,72,0.00,BKN,,0.00,WeatherDisplay:10.37,2013-10-01 15:48:00,
2013-10-01 11:53:00,68.7,59.7,29.97,SSW,200,4.2,5.8,73,0.00,BKN,,0.00,WeatherDisplay:10.37,2013-10-01 15:53:00,
2013-10-01 11:59:00,69.5,59.7,29.97,South,186,3.2,10.4,71,0.00,BKN,,0.00,WeatherDisplay:10.37,2013-10-01 15:59:00,
2013-10-01 12:04:00,70.1,59.0,29.97,SW,228,7.9,13.0,68,0.00,BKN,,0.00,WeatherDisplay:10.37,2013-10-01 16:04:00,
2013-10-01 12:09:00,70.5,59.0,29.97,SW,231,5.1,7.0,67,0.00,BKN,,0.00,WeatherDisplay:10.37,2013-10-01 16:09:00,
2013-10-01 12:14:00,70.7,59.2,29.97,WSW,253,6.6,11.0,67,0.00,BKN,,0.00,WeatherDisplay:10.37,2013-10-01 16:14:00,
2013-10-01 12:19:00,70.9,59.0,29.96,WSW,238,6.0,11.5,66,0.00,BKN,,0.00,WeatherDisplay:10.37,2013-10-01 16:19:00,
2013-10-01 12:24:00,70.9,58.1,29.96,WSW,245,6.4,12.7,64,0.00,BKN,,0.00,WeatherDisplay:10.37,2013-10-01 16:24:00,
2013-10-01 12:29:00,71.1,58.7,29.96,West,263,6.3,9.2,65,0.00,BKN,,0.00,WeatherDisplay:10.37,2013-10-01 16:29:00,
2013-10-01 12:31:00,71.1,58.7,29.96,SW,228,4.6,10.0,65,0.00,BKN,,0.00,WeatherDisplay:10.37,2013-10-01 16:31:00,
2013-10-01 12:36:00,71.4,59.0,29.96,SSW,193,7.0,10.4,65,0.00,BKN,,0.00,WeatherDisplay:10.37,2013-10-01 16:36:00,
2013-10-01 12:41:00,71.9,58.2,29.96,SSW,207,4.4,6.9,62,0.00,BKN,,0.00,WeatherDisplay:10.37,2013-10-01 16:41:00,
2013-10-01 12:46:00,72.2,57.1,29.96,SW,224,10.6,16.1,59,0.00,BKN,,0.00,WeatherDisplay:10.37,2013-10-01 16:46:00,
2013-10-01 12:51:00,72.0,58.3,29.96,WNW,285,10.0,11.5,62,0.00,BKN,,0.00,WeatherDisplay:10.37,2013-10-01 16:51:00,
2013-10-01 12:56:00,71.6,58.8,29.96,South,183,2.9,4.6,64,0.00,BKN,,0.00,WeatherDisplay:10.37,2013-10-01 16:56:00,
2013-10-01 13:01:00,71.7,58.9,29.95,SW,218,1.5,3.5,64,0.00,FEW,,0.00,WeatherDisplay:10.37,2013-10-01 17:01:00,
2013-10-01 13:07:00,71.6,58.3,29.95,WSW,256,7.4,12.7,63,0.00,FEW,,0.00,WeatherDisplay:10.37,2013-10-01 17:07:00,
2013-10-01 13:12:00,70.7,59.2,29.95,WSW,245,7.8,10.4,67,0.00,FEW,,0.00,WeatherDisplay:10.37,2013-10-01 17:12:00,
2013-10-01 13:17:00,70.5,60.6,29.95,WSW,257,4.0,8.1,71,0.00,FEW,,0.00,WeatherDisplay:10.37,2013-10-01 17:17:00,
2013-10-01 13:22:00,71.0,60.7,29.95,SW,218,5.3,9.0,70,0.00,FEW,,0.00,WeatherDisplay:10.37,2013-10-01 17:22:00,
2013-10-01 13:27:00,71.3,60.2,29.94,West,266,8.4,11.5,68,0.00,FEW,,0.00,WeatherDisplay:10.37,2013-10-01 17:27:00,
2013-10-01 13:32:00,71.3,60.2,29.94,SSE,149,1.6,3.5,68,0.00,FEW,,0.00,WeatherDisplay:10.37,2013-10-01 17:32:00,
2013-10-01 13:37:00,71.3,60.6,29.94,WSW,245,5.8,9.2,69,0.00,FEW,,0.00,WeatherDisplay:10.37,2013-10-01 17:37:00,
2013-10-01 13:42:00,71.0,59.9,29.94,WSW,256,5.7,9.2,68,0.00,FEW,,0.00,WeatherDisplay:10.37,2013-10-01 17:42:00,
2013-10-01 13:47:00,70.9,59.8,29.94,SW,224,3.5,8.1,68,0.00,FEW,,0.00,WeatherDisplay:10.37,2013-10-01 17:47:00,
2013-10-01 13:52:00,71.0,59.9,29.94,SSW,212,7.4,11.5,68,0.00,FEW,,0.00,WeatherDisplay:10.37,2013-10-01 17:52:00,
2013-10-01 13:57:00,71.0,59.5,29.94,WSW,240,5.5,8.1,67,0.00,FEW,,0.00,WeatherDisplay:10.37,2013-10-01 17:57:00,
2013-10-01 14:03:00,70.9,59.8,29.93,SW,231,8.9,15.0,68,0.00,SCT,,0.00,WeatherDisplay:10.37,2013-10-01 18:03:00,
2013-10-01 14:08:00,70.6,59.5,29.93,South,190,8.0,9.2,68,0.00,SCT,,0.00,WeatherDisplay:10.37,2013-10-01 18:08:00,
2013-10-01 14:13:00,71.2,59.7,29.93,SW,235,8.3,11.5,67,0.00,SCT,,0.00,WeatherDisplay:10.37,2013-10-01 18:13:00,
2013-10-01 14:18:00,71.9,59.9,29.93,SW,217,5.2,11.5,66,0.00,SCT,,0.00,WeatherDisplay:10.37,2013-10-01 18:18:00,
2013-10-01 14:23:00,72.0,60.0,29.93,SW,214,5.6,9.0,66,0.00,SCT,,0.00,WeatherDisplay:10.37,2013-10-01 18:23:00,
2013-10-01 14:29:00,72.0,60.4,29.93,SW,218,5.4,10.4,67,0.00,SCT,,0.00,WeatherDisplay:10.37,2013-10-01 18:29:00,
2013-10-01 14:34:00,71.9,60.8,29.93,SSW,198,7.2,10.4,68,0.00,SCT,,0.00,WeatherDisplay:10.37,2013-10-01 18:34:00,
2013-10-01 14:39:00,71.4,60.7,29.93,WSW,238,6.2,11.5,69,0.00,SCT,,0.00,WeatherDisplay:10.37,2013-10-01 18:39:00,
2013-10-01 14:44:00,71.1,60.8,29.93,South,184,7.5,11.5,70,0.00,SCT,,0.00,WeatherDisplay:10.37,2013-10-01 18:44:00,
2013-10-01 14:49:00,71.7,60.6,29.92,SW,236,4.2,6.9,68,0.00,SCT,,0.00,WeatherDisplay:10.37,2013-10-01 18:49:00,
2013-10-01 14:54:00,72.2,61.0,29.92,SSW,197,3.9,12.7,68,0.00,SCT,,0.00,WeatherDisplay:10.37,2013-10-01 18:54:00,
2013-10-01 14:59:00,72.2,60.2,29.92,SSE,165,6.7,11.5,66,0.00,SCT,,0.00,WeatherDisplay:10.37,2013-10-01 18:59:00,
2013-10-01 15:04:00,72.3,61.1,29.92,SW,219,3.2,9.2,68,0.00,SCT,,0.00,WeatherDisplay:10.37,2013-10-01 19:04:00,
2013-10-01 15:09:00,71.8,60.7,29.92,SW,214,7.5,11.5,68,0.00,SCT,,0.00,WeatherDisplay:10.37,2013-10-01 19:09:00,
2013-10-01 15:14:00,71.6,61.7,29.92,SSW,205,5.1,9.2,71,0.00,SCT,,0.00,WeatherDisplay:10.37,2013-10-01 19:14:00,
2013-10-01 15:19:00,71.6,60.9,29.92,SW,216,7.0,12.0,69,0.00,SCT,,0.00,WeatherDisplay:10.37,2013-10-01 19:19:00,
2013-10-01 15:24:00,72.1,62.2,29.92,South,169,4.4,5.8,71,0.00,SCT,,0.00,WeatherDisplay:10.37,2013-10-01 19:24:00,
2013-10-01 15:29:00,72.4,61.2,29.92,SSW,203,5.0,14.0,68,0.00,SCT,,0.00,WeatherDisplay:10.37,2013-10-01 19:29:00,
2013-10-01 15:34:00,72.1,60.5,29.92,SW,221,7.0,12.0,67,0.00,SCT,,0.00,WeatherDisplay:10.37,2013-10-01 19:34:00,
2013-10-01 15:39:00,72.3,61.1,29.92,SW,221,6.1,9.2,68,0.00,SCT,,0.00,WeatherDisplay:10.37,2013-10-01 19:39:00,
2013-10-01 15:44:00,72.2,61.0,29.92,SSW,212,3.8,5.8,68,0.00,SCT,,0.00,WeatherDisplay:10.37,2013-10-01 19:44:00,
2013-10-01 15:49:00,72.3,60.7,29.91,WSW,249,8.9,13.8,67,0.00,SCT,,0.00,WeatherDisplay:10.37,2013-10-01 19:49:00,
2013-10-01 15:55:00,72.3,60.3,29.91,WSW,239,8.4,13.8,66,0.00,SCT,,0.00,WeatherDisplay:10.37,2013-10-01 19:55:00,
2013-10-01 16:00:00,72.2,60.6,29.92,SW,221,8.1,13.8,67,0.00,SCT,,0.00,WeatherDisplay:10.37,2013-10-01 20:00:00,
2013-10-01 16:05:00,72.0,60.9,29.91,South,176,4.9,18.4,68,0.00,SCT,,0.00,WeatherDisplay:10.37,2013-10-01 20:05:00,
2013-10-01 16:10:00,72.0,61.3,29.91,SW,214,3.9,9.2,69,0.00,SCT,,0.00,WeatherDisplay:10.37,2013-10-01 20:10:00,
2013-10-01 16:15:00,72.0,61.7,29.92,South,179,5.2,12.7,70,0.00,SCT,,0.00,WeatherDisplay:10.37,2013-10-01 20:15:00,
2013-10-01 16:20:00,71.9,61.6,29.91,SW,225,6.6,13.0,70,0.00,SCT,,0.00,WeatherDisplay:10.37,2013-10-01 20:20:00,
2013-10-01 16:25:00,71.6,61.7,29.91,SSW,204,4.0,6.0,71,0.00,SCT,,0.00,WeatherDisplay:10.37,2013-10-01 20:25:00,
2013-10-01 16:30:00,71.7,62.2,29.91,South,181,6.3,12.0,72,0.00,SCT,,0.00,WeatherDisplay:10.37,2013-10-01 20:30:00,
2013-10-01 16:36:00,71.6,62.1,29.91,SSW,207,5.4,9.2,72,0.00,SCT,,0.00,WeatherDisplay:10.37,2013-10-01 20:36:00,
2013-10-01 16:41:00,71.6,62.1,29.91,SSW,197,2.6,6.0,72,0.00,SCT,,0.00,WeatherDisplay:10.37,2013-10-01 20:41:00,
2013-10-01 16:46:00,71.6,61.7,29.91,SSW,211,5.8,13.0,71,0.00,SCT,,0.00,WeatherDisplay:10.37,2013-10-01 20:46:00,
2013-10-01 16:51:00,71.4,61.5,29.91,SSE,153,5.3,8.1,71,0.00,SCT,,0.00,WeatherDisplay:10.37,2013-10-01 20:51:00,
2013-10-01 16:56:00,71.4,61.5,29.91,SSW,205,7.0,11.5,71,0.00,SCT,,0.00,WeatherDisplay:10.37,2013-10-01 20:56:00,
2013-10-01 17:01:00,71.5,61.6,29.91,West,276,5.1,9.2,71,0.00,FEW,,0.00,WeatherDisplay:10.37,2013-10-01 21:01:00,
2013-10-01 17:07:00,71.5,61.2,29.91,SSW,197,6.6,13.0,70,0.00,FEW,,0.00,WeatherDisplay:10.37,2013-10-01 21:07:00,
2013-10-01 17:12:00,71.4,61.1,29.91,WSW,238,6.1,10.4,70,0.00,FEW,,0.00,WeatherDisplay:10.37,2013-10-01 21:12:00,
2013-10-01 17:17:00,71.4,61.5,29.90,SW,218,5.2,8.1,71,0.00,FEW,,0.00,WeatherDisplay:10.37,2013-10-01 21:17:00,
2013-10-01 17:22:00,71.5,61.6,29.90,SW,221,2.9,6.0,71,0.00,FEW,,0.00,WeatherDisplay:10.37,2013-10-01 21:22:00,
2013-10-01 17:27:00,71.4,61.1,29.91,SW,226,9.7,13.8,70,0.00,FEW,,0.00,WeatherDisplay:10.37,2013-10-01 21:27:00,
2013-10-01 17:32:00,71.3,61.8,29.90,SW,217,3.0,6.0,72,0.00,FEW,,0.00,WeatherDisplay:10.37,2013-10-01 21:32:00,
2013-10-01 17:37:00,71.2,61.7,29.90,WSW,242,6.2,9.2,72,0.00,FEW,,0.00,WeatherDisplay:10.37,2013-10-01 21:37:00,
2013-10-01 17:42:00,71.1,61.6,29.90,SW,217,3.0,6.9,72,0.00,FEW,,0.00,WeatherDisplay:10.37,2013-10-01 21:42:00,
2013-10-01 17:47:00,71.1,61.6,29.90,SSW,207,5.6,11.5,72,0.00,FEW,,0.00,WeatherDisplay:10.37,2013-10-01 21:47:00,
2013-10-01 17:52:00,71.0,61.5,29.90,WSW,245,6.4,11.5,72,0.00,FEW,,0.00,WeatherDisplay:10.37,2013-10-01 21:52:00,
2013-10-01 17:57:00,70.7,61.6,29.90,SW,219,2.7,6.9,73,0.00,FEW,,0.00,WeatherDisplay:10.37,2013-10-01 21:57:00,
2013-10-01 18:02:00,70.3,61.2,29.91,SW,228,4.0,9.2,73,0.00,SCT,,0.00,WeatherDisplay:10.37,2013-10-01 22:02:00,
2013-10-01 18:07:00,69.7,61.0,29.91,West,264,7.6,11.5,74,0.00,SCT,,0.00,WeatherDisplay:10.37,2013-10-01 22:07:00,
2013-10-01 18:12:00,69.2,60.9,29.91,SW,214,2.5,3.5,75,0.00,SCT,,0.00,WeatherDisplay:10.37,2013-10-01 22:12:00,
2013-10-01 18:17:00,68.9,61.0,29.91,SSW,208,3.9,7.0,76,0.00,SCT,,0.00,WeatherDisplay:10.37,2013-10-01 22:17:00,
2013-10-01 18:22:00,68.9,61.0,29.90,SW,218,3.6,8.1,76,0.00,SCT,,0.00,WeatherDisplay:10.37,2013-10-01 22:22:00,
2013-10-01 18:27:00,68.7,60.8,29.90,SSW,204,4.3,10.4,76,0.00,SCT,,0.00,WeatherDisplay:10.37,2013-10-01 22:27:00,
2013-10-01 18:32:00,68.6,60.7,29.90,SSW,193,3.8,6.9,76,0.00,SCT,,0.00,WeatherDisplay:10.37,2013-10-01 22:32:00,
2013-10-01 18:37:00,68.4,60.5,29.90,WSW,240,5.5,11.5,76,0.00,SCT,,0.00,WeatherDisplay:10.37,2013-10-01 22:37:00,
2013-10-01 18:42:00,68.3,60.4,29.90,SW,233,3.3,5.8,76,0.00,SCT,,0.00,WeatherDisplay:10.37,2013-10-01 22:42:00,
2013-10-01 18:47:00,68.0,60.5,29.90,SSW,210,3.5,6.0,77,0.00,SCT,,0.00,WeatherDisplay:10.37,2013-10-01 22:47:00,
2013-10-01 18:52:00,67.7,60.2,29.90,SW,214,2.4,5.8,77,0.00,SCT,,0.00,WeatherDisplay:10.37,2013-10-01 22:52:00,
2013-10-01 18:57:00,67.4,60.3,29.90,SSW,210,3.2,7.0,78,0.00,SCT,,0.00,WeatherDisplay:10.37,2013-10-01 22:57:00,
2013-10-01 19:02:00,67.2,60.1,29.89,South,191,3.2,5.8,78,0.00,SCT,,0.00,WeatherDisplay:10.37,2013-10-01 23:02:00,
2013-10-01 19:07:00,67.0,60.3,29.89,SW,229,2.2,3.5,79,0.00,SCT,,0.00,WeatherDisplay:10.37,2013-10-01 23:07:00,
2013-10-01 19:12:00,66.7,60.3,29.89,SW,221,1.8,4.6,80,0.00,SCT,,0.00,WeatherDisplay:10.37,2013-10-01 23:12:00,
2013-10-01 19:17:00,66.5,60.1,29.89,SSW,197,3.4,5.8,80,0.00,SCT,,0.00,WeatherDisplay:10.37,2013-10-01 23:17:00,
2013-10-01 19:20:00,66.5,60.5,29.89,SSW,210,2.7,6.9,81,0.00,SCT,,0.00,WeatherDisplay:10.37,2013-10-01 23:20:00,
2013-10-01 19:25:00,66.4,60.4,29.89,SW,220,3.6,6.9,81,0.00,SCT,,0.00,WeatherDisplay:10.37,2013-10-01 23:25:00,
2013-10-01 19:30:00,66.3,60.3,29.89,SW,217,4.3,6.9,81,0.00,SCT,,0.00,WeatherDisplay:10.37,2013-10-01 23:30:00,
2013-10-01 19:35:00,66.3,60.6,29.89,SSW,201,2.5,3.5,82,0.00,SCT,,0.00,WeatherDisplay:10.37,2013-10-01 23:35:00,
2013-10-01 19:40:00,66.3,60.6,29.89,SW,224,4.2,6.9,82,0.00,SCT,,0.00,WeatherDisplay:10.37,2013-10-01 23:40:00,
2013-10-01 19:45:00,66.3,60.6,29.89,South,187,2.2,4.6,82,0.00,SCT,,0.00,WeatherDisplay:10.37,2013-10-01 23:45:00,
2013-10-01 19:50:00,66.2,60.5,29.89,SSW,200,4.0,5.8,82,0.00,SCT,,0.00,WeatherDisplay:10.37,2013-10-01 23:50:00,
2013-10-01 19:55:00,66.1,60.4,29.89,SSE,163,2.3,3.5,82,0.00,SCT,,0.00,WeatherDisplay:10.37,2013-10-01 23:55:00,
2013-10-01 20:00:00,66.1,60.4,29.89,SSW,207,1.2,3.5,82,0.00,SCT,,0.00,WeatherDisplay:10.37,2013-10-02 00:00:00,
2013-10-01 20:05:00,65.9,60.2,29.89,SSW,210,2.1,5.8,82,0.00,BKN,,0.00,WeatherDisplay:10.37,2013-10-02 00:05:00,
2013-10-01 20:10:00,65.7,60.4,29.89,South,188,2.6,4.6,83,0.00,BKN,,0.00,WeatherDisplay:10.37,2013-10-02 00:10:00,
2013-10-01 20:15:00,65.5,60.2,29.89,SW,226,2.9,3.5,83,0.00,BKN,,0.00,WeatherDisplay:10.37,2013-10-02 00:15:00,
2013-10-01 20:18:00,65.5,60.2,29.89,SSW,211,1.5,3.5,83,0.00,BKN,,0.00,WeatherDisplay:10.37,2013-10-02 00:18:00,
2013-10-01 20:23:00,65.2,60.2,29.90,South,190,1.7,3.5,84,0.00,BKN,,0.00,WeatherDisplay:10.37,2013-10-02 00:23:00,
2013-10-01 20:28:00,65.1,60.1,29.89,SSW,200,3.3,5.0,84,0.00,BKN,,0.00,WeatherDisplay:10.37,2013-10-02 00:28:00,
2013-10-01 20:33:00,65.1,60.1,29.90,SW,217,2.8,3.5,84,0.00,BKN,,0.00,WeatherDisplay:10.37,2013-10-02 00:33:00,
2013-10-01 20:38:00,65.1,60.1,29.89,SSE,156,4.3,9.2,84,0.00,BKN,,0.00,WeatherDisplay:10.37,2013-10-02 00:38:00,
2013-10-01 20:43:00,65.2,60.2,29.90,SSW,206,4.3,8.1,84,0.00,BKN,,0.00,WeatherDisplay:10.37,2013-10-02 00:43:00,
2013-10-01 20:48:00,65.1,60.1,29.89,SW,226,3.1,6.0,84,0.00,BKN,,0.00,WeatherDisplay:10.37,2013-10-02 00:48:00,
2013-10-01 20:53:00,65.1,60.1,29.89,SSW,194,2.5,3.5,84,0.00,BKN,,0.00,WeatherDisplay:10.37,2013-10-02 00:53:00,
2013-10-01 20:58:00,65.0,60.4,29.89,SSE,160,1.9,3.5,85,0.00,BKN,,0.00,WeatherDisplay:10.37,2013-10-02 00:58:00,
2013-10-01 21:03:00,64.8,60.2,29.89,SW,234,2.3,3.5,85,0.00,SCT,,0.00,WeatherDisplay:10.37,2013-10-02 01:03:00,
2013-10-01 21:08:00,64.7,60.4,29.89,SSW,204,1.7,2.3,86,0.00,SCT,,0.00,WeatherDisplay:10.37,2013-10-02 01:08:00,
2013-10-01 21:13:00,64.5,60.2,29.89,WSW,239,1.2,3.0,86,0.00,SCT,,0.00,WeatherDisplay:10.37,2013-10-02 01:13:00,
2013-10-01 21:18:00,64.3,60.3,29.89,SSW,210,0.8,2.3,87,0.00,SCT,,0.00,WeatherDisplay:10.37,2013-10-02 01:18:00,
2013-10-01 21:23:00,64.2,60.6,29.89,SW,217,1.3,2.3,88,0.00,SCT,,0.00,WeatherDisplay:10.37,2013-10-02 01:23:00,
2013-10-01 21:28:00,64.1,60.5,29.89,SSW,209,2.1,3.5,88,0.00,SCT,,0.00,WeatherDisplay:10.37,2013-10-02 01:28:00,
2013-10-01 21:33:00,64.0,60.7,29.89,South,179,2.4,3.5,89,0.00,SCT,,0.00,WeatherDisplay:10.37,2013-10-02 01:33:00,
2013-10-01 21:38:00,64.0,60.7,29.89,SW,220,2.4,3.5,89,0.00,SCT,,0.00,WeatherDisplay:10.37,2013-10-02 01:38:00,
2013-10-01 21:43:00,63.9,60.9,29.88,SSW,211,3.9,8.1,90,0.00,SCT,,0.00,WeatherDisplay:10.37,2013-10-02 01:43:00,
2013-10-01 21:48:00,64.0,61.0,29.89,SSW,201,3.3,4.0,90,0.00,SCT,,0.00,WeatherDisplay:10.37,2013-10-02 01:48:00,
2013-10-01 21:53:00,64.1,61.1,29.89,SSW,212,2.6,5.0,90,0.00,SCT,,0.00,WeatherDisplay:10.37,2013-10-02 01:53:00,
2013-10-01 21:58:00,64.0,61.3,29.88,SSW,207,2.3,3.5,91,0.00,SCT,,0.00,WeatherDisplay:10.37,2013-10-02 01:58:00,
2013-10-01 22:03:00,64.0,61.3,29.88,SSW,207,1.5,3.5,91,0.00,SCT,,0.00,WeatherDisplay:10.37,2013-10-02 02:03:00,
2013-10-01 22:08:00,63.9,61.2,29.88,SW,217,1.9,3.5,91,0.00,SCT,,0.00,WeatherDisplay:10.37,2013-10-02 02:08:00,
2013-10-01 22:14:00,63.9,61.2,29.88,South,186,1.6,4.0,91,0.00,SCT,,0.00,WeatherDisplay:10.37,2013-10-02 02:14:00,
2013-10-01 22:19:00,63.9,61.2,29.88,SSW,196,2.6,4.6,91,0.00,SCT,,0.00,WeatherDisplay:10.37,2013-10-02 02:19:00,
2013-10-01 22:24:00,63.8,61.1,29.88,SSW,210,2.3,3.5,91,0.00,SCT,,0.00,WeatherDisplay:10.37,2013-10-02 02:24:00,
2013-10-01 22:29:00,63.9,61.2,29.88,South,170,1.0,2.3,91,0.00,SCT,,0.00,WeatherDisplay:10.37,2013-10-02 02:29:00,
2013-10-01 22:34:00,63.8,61.1,29.88,South,179,2.2,2.3,91,0.00,SCT,,0.00,WeatherDisplay:10.37,2013-10-02 02:34:00,
2013-10-01 22:39:00,63.8,61.1,29.88,SSW,207,1.5,2.3,91,0.00,SCT,,0.00,WeatherDisplay:10.37,2013-10-02 02:39:00,
2013-10-01 22:44:00,63.7,61.0,29.88,SSE,162,1.9,3.5,91,0.00,SCT,,0.00,WeatherDisplay:10.37,2013-10-02 02:44:00,
2013-10-01 22:49:00,63.6,60.9,29.88,SW,226,2.7,3.5,91,0.00,SCT,,0.00,WeatherDisplay:10.37,2013-10-02 02:49:00,
2013-10-01 22:54:00,63.5,60.8,29.87,SW,218,3.0,5.0,91,0.00,SCT,,0.00,WeatherDisplay:10.37,2013-10-02 02:54:00,
2013-10-01 22:59:00,63.4,60.7,29.87,SSE,148,3.0,4.6,91,0.00,SCT,,0.00,WeatherDisplay:10.37,2013-10-02 02:59:00,
2013-10-01 23:04:00,63.3,60.6,29.87,SW,224,2.6,3.5,91,0.00,SCT,,0.00,WeatherDisplay:10.37,2013-10-02 03:04:00,
2013-10-01 23:09:00,63.1,60.4,29.87,SSW,210,1.6,2.3,91,0.00,SCT,,0.00,WeatherDisplay:10.37,2013-10-02 03:09:00,
2013-10-01 23:14:00,63.0,60.3,29.87,SSE,166,1.2,4.6,91,0.00,SCT,,0.00,WeatherDisplay:10.37,2013-10-02 03:14:00,
2013-10-01 23:19:00,62.9,60.5,29.87,South,185,1.3,3.5,92,0.00,SCT,,0.00,WeatherDisplay:10.37,2013-10-02 03:19:00,
2013-10-01 23:24:00,62.8,60.4,29.87,SSE,148,2.2,4.0,92,0.00,SCT,,0.00,WeatherDisplay:10.37,2013-10-02 03:24:00,
2013-10-01 23:29:00,62.7,60.3,29.87,SSW,203,2.6,3.5,92,0.00,SCT,,0.00,WeatherDisplay:10.37,2013-10-02 03:29:00,
2013-10-01 23:34:00,62.7,60.3,29.88,SW,226,2.0,3.5,92,0.00,SCT,,0.00,WeatherDisplay:10.37,2013-10-02 03:34:00,
2013-10-01 23:35:00,62.7,60.3,29.88,WSW,248,3.2,3.5,92,0.00,SCT,,0.00,WeatherDisplay:10.37,2013-10-02 03:35:00,
2013-10-01 23:40:00,62.7,60.0,29.88,South,185,1.0,2.3,91,0.00,SCT,,0.00,WeatherDisplay:10.37,2013-10-02 03:40:00,
2013-10-01 23:45:00,62.6,59.9,29.88,SSE,158,1.0,1.2,91,0.00,SCT,,0.00,WeatherDisplay:10.37,2013-10-02 03:45:00,
2013-10-01 23:50:00,62.4,59.7,29.88,SSW,206,1.0,2.3,91,0.00,SCT,,0.00,WeatherDisplay:10.37,2013-10-02 03:50:00,
2013-10-01 23:55:00,62.2,59.8,29.88,SW,214,1.8,3.5,92,0.00,SCT,,0.00,WeatherDisplay:10.37,2013-10-02 03:55:00,